Regional Weather Roundup
Issued by NWS

Home | Current Version | Previous Version | Text Only | Print | Product List | Glossary On
Versions: 1 2 3 4 5 6 7 8 9 10 11 12 13 14 15 16 17 18 19 20 21 22 23 24 25 26 27 28 29 30 31 32 33 34 35 36 37 38 39 40 41 42 43 44 45 46 47 48 49 50
072
ASUS43 KTOP 260108
RWRKS

WEATHER ROUNDUP FOR KANSAS
NATIONAL WEATHER SERVICE GOODLAND KS
700 PM CST SAT FEB 25 2017

NOTE:  "FAIR" INDICATES FEW OR NO CLOUDS BELOW 12,000 FEET WITH NO
SIGNIFICANT WEATHER AND/OR OBSTRUCTIONS TO VISIBILITY.

KSZ001>006-013>018-027>032-041>047-260200-
NORTHWEST KANSAS

CITY           SKY/WX    TMP DP  RH WIND       PRES   REMARKS
GOODLAND       CLEAR     22   4  46 E8        29.84F
HAYS           CLEAR     38  14  37 CALM      29.92F
HILL CITY      CLEAR     33  14  45 N6        29.91S
RUSSELL        CLEAR     35  14  42 S9        29.91F
$$

KSZ061>065-074>080-084>089-260200-
SOUTHWEST KANSAS

CITY           SKY/WX    TMP DP  RH WIND       PRES   REMARKS
DODGE CITY     CLEAR     38  16  40 S10       29.89F WCI  31
ELKHART          N/A     40   8  26 SE3         N/A
GARDEN CITY    CLEAR     39   3  22 N6        29.86S
GREAT BEND     PTCLDY    35  12  38 S8        29.94F
LIBERAL        CLEAR     39  10  30 SE6       29.85F
PRATT          CLEAR     37   8  30 SE7       29.96F
$$

KSZ066>073-081>083-090>101-260200-
SOUTHEAST KANSAS

CITY           SKY/WX    TMP DP  RH WIND       PRES   REMARKS
CHANUTE        CLEAR     34  12  40 S7        30.07F
COFFEYVILLE    CLEAR     39  12  33 S7        30.09F
HUTCHINSON     CLEAR     36  15  42 S12       29.99F WCI  28
MEDICINE LODGE   N/A     38  14  37 SE10      29.98F WCI  31
NEWTON         CLEAR     35  17  47 S12       30.02F WCI  27
PARSONS        CLEAR     37  12  35 S3        30.09F
WICHITA INTL   CLEAR     33  18  53 S9        30.03F
WICHITA JABRA  CLEAR     36  17  46 S9        30.04S
WICHITA MCCONL CLEAR     34  16  48 S7        30.04S
WINFIELD       CLEAR     35  21  56 S6        30.07S
$$

KSZ007>012-019>026-033>040-048>060-102>105-260200-
NORTHEAST KANSAS

CITY           SKY/WX    TMP DP  RH WIND       PRES   REMARKS
CONCORDIA      MOCLDY    36  19  50 S9        29.93F
EMPORIA        CLOUDY    37  13  37 SW8       30.04S
LAWRENCE       PTCLDY    36   9  32 S6        30.05S
MANHATTAN      MOCLDY    40  15  36 S9        30.00F
MARYSVILLE     PTCLDY    36  18  48 SE6       29.96F
OLATHE IND     CLEAR     30  11  45 S6        30.06S
OLATHE EXE     CLEAR     34  11  38 S5        30.05S
SALINA         MOCLDY    39  13  34 S9        29.98F
TOPEKA BILLARD CLOUDY    41  11  29 S3        30.04S
TOPEKA FORBES  MOCLDY    38  11  32 S6        30.03S
$$




USA.gov is the U.S. government's official web portal to all federal, state and local government web resources and services.